"startDT [UTC]","vpos","CH4 [ppm]","stdev(CH4) [ppm]","CO2 [ppm]","stdev(CO2) [ppm]","H2O [ppm]","stdev(H2O)","p_LGR [torr]","T_LGR [C]","mt1_LGR [us]","mt2_LGR [us]","T_ECpre [C]","T_EC1 [C]","T_EC2 [C]","p_inlet [hPa]","p_in [hPa]","p_out [hPa]","T_inlet [C]","RH_inlet [%]","dwpt_inlet [C]","T_vent [C]","RH_vent [%]","dwpt_vent [C]","flow_vent [l min-1]","flow_inlet [l min-1]","dwpt_sample [C]","T_room [C]"
2012-05-17 00:00:00,0.0,1.8939,0.0009,402.48,0.17,2.1,11.0,138.06,30.85,24.63,36.36,0.94,-27.63,-27.61,-57,567,-913,26.0,9.8,-8.3,26.0,1.2,-32.7,5.73,2.30,-28.7,30.6
2012-05-17 00:01:00,0.0,1.8942,0.0009,402.44,0.21,3.1,12.0,138.06,30.85,24.63,36.37,0.97,-27.65,-27.38,-57,567,-913,26.0,9.8,-8.3,26.0,1.2,-32.7,5.73,2.27,-28.7,30.6
2012-05-17 00:02:00,0.0,1.8940,0.0009,402.44,0.18,1.8,7.7,138.06,30.86,24.63,36.36,0.96,-27.66,-27.47,-57,567,-912,26.1,9.7,-8.3,26.0,1.1,-32.9,5.73,2.26,-28.6,30.6
2012-05-17 00:03:00,0.0,1.8942,0.0010,402.43,0.18,2.9,9.1,138.05,30.86,24.63,36.36,0.98,-27.67,-27.65,-57,567,-912,26.1,9.7,-8.3,26.1,1.1,-32.9,5.73,2.29,-28.6,30.7
2012-05-17 00:04:00,0.0,1.8941,0.0010,402.42,0.20,2.7,9.8,138.05,30.87,24.63,36.36,0.98,-27.68,-27.48,-57,567,-912,26.1,9.7,-8.2,26.1,1.1,-32.9,5.73,2.24,-28.6,30.7
2012-05-17 00:05:00,0.0,1.8938,0.0011,402.36,0.17,2.1,10.3,138.05,30.88,24.63,36.37,0.88,-27.31,-27.47,-57,567,-912,26.1,9.7,-8.3,26.1,1.2,-32.3,5.73,2.28,-28.6,30.8
2012-05-17 00:06:00,0.0,1.8936,0.0011,402.37,0.22,1.7,8.1,138.05,30.89,24.64,36.37,0.93,-25.72,-27.64,-57,567,-912,26.2,9.6,-8.3,26.1,1.2,-32.1,5.73,2.23,-28.5,30.9
2012-05-17 00:07:00,0.0,1.8934,0.0011,402.40,0.18,1.2,6.1,138.04,30.90,24.64,36.37,0.96,-23.78,-27.78,-56,567,-912,26.2,9.6,-8.4,26.2,1.3,-31.8,5.73,2.27,-28.5,31.0
2012-05-17 00:08:00,0.0,1.8940,0.0011,402.41,0.18,3.9,12.8,138.04,30.92,24.63,36.37,0.92,-21.84,-27.89,-56,567,-912,26.2,9.6,-8.4,26.2,1.3,-31.7,5.73,2.23,-28.4,31.1
2012-05-17 00:09:00,0.0,1.8941,0.0010,402.49,0.23,10.6,21.1,138.04,30.93,24.63,36.37,0.80,-19.96,-27.96,-56,567,-912,26.2,9.5,-8.4,26.2,1.3,-31.7,5.73,2.24,-28.4,31.1
2012-05-17 00:10:00,0.0,1.8942,0.0011,402.58,0.24,10.2,19.3,138.04,30.95,24.63,36.36,0.84,-18.17,-28.03,-56,567,-912,26.3,9.5,-8.4,26.3,1.3,-31.6,5.73,2.25,-28.3,31.2
2012-05-17 00:11:00,0.0,1.8945,0.0009,402.49,0.22,11.7,18.8,138.03,30.97,24.63,36.37,0.90,-16.46,-28.08,-56,567,-912,26.3,9.5,-8.4,26.3,1.3,-31.6,5.73,2.22,-28.3,31.2
2012-05-17 00:12:00,0.0,1.8948,0.0010,402.44,0.23,12.9,18.2,138.03,30.99,24.63,36.37,0.95,-14.84,-28.12,-56,566,-912,26.3,9.5,-8.4,26.3,1.2,-31.8,5.73,2.25,-28.2,31.3
2012-05-17 00:13:00,0.0,1.8946,0.0008,402.52,0.21,27.1,29.3,138.03,31.01,24.64,36.37,0.96,-13.30,-28.17,-56,567,-913,26.4,9.5,-8.4,26.4,1.2,-31.8,5.73,2.22,-28.2,31.4
2012-05-17 00:14:00,0.0,1.8949,0.0010,402.49,0.22,29.7,28.2,138.03,31.03,24.64,36.37,0.86,-11.84,-28.19,-56,567,-912,26.4,9.4,-8.4,26.4,1.2,-32.0,5.73,2.22,-28.1,31.5
2012-05-17 00:15:00,0.0,1.8954,0.0010,402.64,0.18,27.7,27.2,138.03,31.04,24.63,36.36,0.80,-10.44,-28.23,-56,567,-913,26.5,9.4,-8.4,26.5,1.2,-32.0,5.73,2.24,-28.0,31.5
2012-05-17 00:16:00,0.0,1.8956,0.0010,402.62,0.20,38.2,29.8,138.02,31.06,24.63,36.37,0.87,-9.12,-28.26,-56,567,-913,26.5,9.4,-8.4,26.5,1.2,-32.2,5.73,2.20,-28.0,31.5
2012-05-17 00:17:00,0.0,1.8954,0.0009,402.54,0.20,38.1,32.5,138.02,31.08,24.64,36.38,0.92,-7.84,-28.28,-56,567,-912,26.6,9.4,-8.4,26.5,1.2,-32.2,5.73,2.21,-28.0,31.6
2012-05-17 00:18:00,0.0,1.8961,0.0009,402.73,0.21,45.1,31.6,138.02,31.10,24.63,36.36,0.95,-6.64,-28.30,-56,567,-913,26.6,9.3,-8.4,26.6,1.1,-32.5,5.73,2.22,-27.9,31.7
2012-05-17 00:19:00,0.0,1.8962,0.0008,402.71,0.22,55.3,34.6,138.02,31.12,24.64,36.37,0.95,-5.50,-28.33,-56,567,-913,26.6,9.3,-8.4,26.6,1.1,-32.5,5.73,2.19,-27.9,31.8
2012-05-17 00:20:00,0.0,1.8968,0.0010,402.76,0.21,51.7,30.5,138.02,31.14,24.63,36.37,0.88,-4.41,-28.34,-56,567,-913,26.7,9.3,-8.4,26.7,1.1,-32.6,5.73,2.20,-27.8,31.8
2012-05-17 00:21:00,0.0,1.8968,0.0010,402.78,0.17,58.4,34.4,138.01,31.16,24.63,36.37,0.84,-3.37,-28.35,-56,567,-913,26.7,9.3,-8.4,26.7,1.1,-32.6,5.73,2.22,-27.8,31.9
2012-05-17 00:22:00,0.0,1.8970,0.0008,402.83,0.17,67.4,38.9,138.01,31.18,24.63,36.37,0.88,-2.39,-28.36,-56,567,-913,26.8,9.3,-8.4,26.7,1.1,-32.8,5.73,2.19,-27.8,31.9
2012-05-17 00:23:00,0.0,1.8978,0.0010,402.90,0.22,51.9,30.4,138.01,31.20,24.63,36.36,0.90,-1.45,-28.38,-56,568,-913,26.8,9.2,-8.4,26.8,1.1,-32.8,5.73,2.19,-27.7,32.0
2012-05-17 00:24:00,0.0,1.8972,0.0010,402.82,0.24,66.8,29.1,138.01,31.22,24.63,36.37,0.93,-0.55,-28.39,-56,568,-913,26.9,9.2,-8.3,26.8,1.1,-32.8,5.73,2.21,-27.7,32.1
2012-05-17 00:25:00,0.0,1.8971,0.0010,402.90,0.17,66.2,34.6,138.01,31.24,24.63,36.37,0.94,0.30,-28.39,-56,568,-913,26.9,9.2,-8.3,26.9,1.1,-33.1,5.73,2.19,-27.7,32.1
2012-05-17 00:26:00,0.0,1.8976,0.0011,402.79,0.19,70.6,32.8,138.01,31.26,24.63,36.37,0.95,1.12,-28.40,-56,568,-913,27.0,9.1,-8.4,26.9,1.1,-33.0,5.73,2.18,-27.6,32.2
2012-05-17 00:27:00,0.0,1.8972,0.0009,402.84,0.17,67.8,30.1,138.01,31.28,24.63,36.37,0.95,1.89,-28.40,-56,568,-913,27.0,9.1,-8.4,27.0,1.0,-33.2,5.73,2.20,-27.6,32.2
2012-05-17 00:28:00,0.0,1.8972,0.0010,402.87,0.21,71.5,29.6,138.01,31.30,24.63,36.37,0.88,2.61,-28.41,-56,568,-913,27.1,9.1,-8.4,27.0,1.0,-33.3,5.73,2.18,-27.6,32.3
2012-05-17 00:29:00,0.0,1.8973,0.0009,402.90,0.22,78.9,37.1,138.01,31.32,24.63,36.37,0.87,3.17,-28.41,-56,569,-913,27.1,9.1,-8.3,27.1,1.0,-33.3,5.73,2.16,-27.5,32.3
2012-05-17 00:30:00,0.0,1.8973,0.0009,402.97,0.19,70.8,36.6,138.01,31.34,24.63,36.37,0.88,3.72,-28.41,-56,569,-913,27.1,9.1,-8.4,27.1,1.0,-33.3,5.73,2.18,-27.5,32.4
2012-05-17 00:31:00,0.0,1.8976,0.0008,402.90,0.19,79.6,28.7,138.01,31.36,24.63,36.37,0.91,4.27,-28.42,-56,569,-913,27.2,9.0,-8.4,27.1,1.0,-33.3,5.73,2.19,-27.5,32.4
2012-05-17 00:32:00,0.0,1.8973,0.0009,402.97,0.18,85.0,33.0,138.01,31.38,24.63,36.37,0.91,4.82,-28.42,-56,569,-914,27.2,9.0,-8.4,27.2,1.0,-33.5,5.73,2.16,-27.5,32.4
2012-05-17 00:33:00,0.0,1.8975,0.0007,402.91,0.23,85.4,30.4,138.01,31.40,24.63,36.37,0.95,5.37,-28.42,-56,569,-914,27.3,9.0,-8.4,27.2,1.0,-33.5,5.73,2.16,-27.5,32.5
2012-05-17 00:34:00,0.0,1.8973,0.0007,402.95,0.18,81.8,30.1,138.01,31.43,24.63,36.37,0.95,5.89,-28.42,-56,569,-914,27.3,9.0,-8.4,27.3,1.0,-33.5,5.73,2.18,-27.5,32.5
2012-05-17 00:35:00,0.0,1.8975,0.0011,402.92,0.22,83.8,38.2,138.00,31.45,24.63,36.37,0.95,6.40,-28.42,-56,569,-914,27.4,9.0,-8.3,27.3,1.0,-33.5,5.73,2.18,-27.4,32.5
2012-05-17 00:36:00,0.0,1.8973,0.0011,403.08,0.20,87.6,33.8,138.00,31.46,24.63,36.36,0.94,6.89,-28.42,-56,569,-914,27.4,9.0,-8.3,27.3,1.0,-33.6,5.73,2.15,-27.4,32.6
2012-05-17 00:37:00,0.0,1.8972,0.0009,403.02,0.18,87.4,34.1,138.00,31.48,24.63,36.36,0.89,7.35,-28.42,-56,570,-914,27.4,9.0,-8.2,27.4,1.0,-33.7,5.73,2.15,-27.4,32.5
2012-05-17 00:38:00,0.0,1.8970,0.0012,402.94,0.21,91.9,32.0,138.00,31.50,24.63,36.37,0.86,7.80,-28.42,-56,570,-914,27.5,9.0,-8.2,27.4,1.0,-33.7,5.73,2.18,-27.4,32.6
2012-05-17 00:39:00,0.0,1.8971,0.0010,402.91,0.21,87.7,37.7,138.00,31.52,24.63,36.38,0.87,8.23,-28.41,-56,570,-914,27.5,9.0,-8.3,27.5,1.0,-33.6,5.73,2.16,-27.4,32.6
2012-05-17 00:40:00,0.0,1.8966,0.0010,402.94,0.19,96.2,32.0,138.00,31.54,24.64,36.37,0.92,8.64,-28.41,-56,570,-914,27.5,8.9,-8.3,27.5,1.0,-33.6,5.73,2.14,-27.4,32.6
2012-05-17 00:41:00,0.0,1.8971,0.0009,402.86,0.17,93.0,34.2,138.00,31.56,24.63,36.38,0.92,9.05,-28.41,-56,570,-914,27.6,8.9,-8.3,27.5,1.0,-33.6,5.73,2.15,-27.4,32.6
2012-05-17 00:42:00,0.0,1.8971,0.0009,402.93,0.22,91.6,34.1,138.00,31.57,24.63,36.37,0.92,9.43,-28.41,-56,570,-914,27.6,8.9,-8.2,27.6,0.9,-33.8,5.73,2.17,-27.4,32.7
2012-05-17 00:43:00,0.0,1.8970,0.0009,402.94,0.21,86.6,33.2,138.00,31.59,24.63,36.37,0.94,9.82,-28.41,-56,571,-914,27.7,9.0,-8.1,27.6,0.9,-33.9,5.73,2.16,-27.4,32.7
2012-05-17 00:44:00,0.0,1.8970,0.0011,403.01,0.22,84.9,30.7,138.00,31.61,24.63,36.37,0.95,10.18,-28.41,-56,571,-914,27.7,8.9,-8.1,27.6,0.9,-33.9,5.73,2.14,-27.4,32.8
2012-05-17 00:45:00,0.0,1.8970,0.0009,402.91,0.20,75.9,33.6,138.00,31.63,24.63,36.38,0.96,10.53,-28.40,-56,571,-915,27.7,8.8,-8.3,27.7,0.9,-33.8,5.73,2.16,-27.4,32.8
2012-05-17 00:46:00,0.0,1.8969,0.0009,402.93,0.24,87.9,33.0,138.00,31.65,24.63,36.37,0.93,10.87,-28.40,-56,571,-915,27.8,8.8,-8.2,27.7,0.9,-33.8,5.73,2.17,-27.4,32.9
2012-05-17 00:47:00,0.0,1.8967,0.0010,402.92,0.16,85.2,33.4,138.00,31.67,24.63,36.38,0.89,11.20,-28.40,-56,571,-915,27.8,8.8,-8.2,27.7,0.9,-33.8,5.73,2.15,-27.4,32.8
2012-05-17 00:48:00,0.0,1.8967,0.0009,402.93,0.20,87.8,32.5,138.00,31.69,24.63,36.37,0.88,11.51,-28.40,-56,571,-915,27.8,8.8,-8.3,27.8,0.9,-34.0,5.73,2.13,-27.4,32.9
2012-05-17 00:49:00,0.0,1.8969,0.0009,403.03,0.18,85.2,34.7,138.00,31.71,24.63,36.37,0.89,11.81,-28.39,-56,571,-915,27.9,8.8,-8.2,27.8,0.9,-34.1,5.73,2.15,-27.4,32.8
2012-05-17 00:50:00,0.0,1.8966,0.0008,402.98,0.19,84.7,32.7,138.00,31.73,24.63,36.37,0.90,12.09,-28.39,-56,571,-915,27.9,8.8,-8.2,27.8,0.9,-34.1,5.73,2.16,-27.4,32.8
2012-05-17 00:51:00,0.0,1.8966,0.0009,402.99,0.19,77.0,33.7,138.00,31.75,24.63,36.38,0.91,12.37,-28.39,-56,572,-915,27.9,8.7,-8.3,27.8,0.9,-34.1,5.73,2.14,-27.4,32.9
2012-05-17 00:52:00,0.0,1.8962,0.0009,402.96,0.19,83.3,31.2,138.00,31.77,24.63,36.38,0.92,12.63,-28.39,-56,572,-915,28.0,8.6,-8.4,27.9,0.9,-34.1,5.73,2.13,-27.4,32.9
2012-05-17 00:53:00,0.0,1.8964,0.0008,403.01,0.16,85.6,30.7,138.00,31.79,24.64,36.37,0.92,12.88,-28.38,-56,572,-915,28.0,8.6,-8.4,27.9,0.9,-34.0,5.73,2.15,-27.3,32.9
2012-05-17 00:54:00,0.0,1.8966,0.0010,403.01,0.18,91.2,39.7,138.00,31.81,24.63,36.37,0.95,13.12,-28.38,-56,572,-915,28.0,8.6,-8.4,27.9,0.9,-34.0,5.73,2.15,-27.3,32.9
2012-05-17 00:55:00,0.0,1.8967,0.0010,403.06,0.22,92.6,27.6,138.00,31.82,24.63,36.37,0.95,13.35,-28.38,-56,572,-915,28.1,8.6,-8.4,28.0,0.9,-34.0,5.73,2.13,-27.3,32.9
2012-05-17 00:56:00,0.0,1.8965,0.0009,402.93,0.18,85.5,31.8,138.00,31.84,24.63,36.38,0.94,13.57,-28.38,-56,572,-915,28.1,8.5,-8.5,28.0,0.9,-34.0,5.73,2.13,-27.3,32.9
2012-05-17 00:57:00,0.0,1.8964,0.0008,402.94,0.20,94.6,31.3,138.00,31.86,24.63,36.38,0.93,13.78,-28.38,-56,572,-915,28.1,8.5,-8.5,28.0,0.9,-34.0,5.73,2.15,-27.4,33.0
2012-05-17 00:58:00,0.0,1.8967,0.0010,403.00,0.23,96.6,33.0,138.00,31.88,24.63,36.37,0.90,13.98,-28.38,-56,573,-915,28.1,8.5,-8.5,28.1,0.9,-33.9,5.73,2.15,-27.4,33.0
2012-05-17 00:59:00,0.0,1.8962,0.0009,403.03,0.18,101.7,32.5,137.99,31.90,24.63,36.37,0.89,14.17,-28.38,-56,573,-915,28.2,8.5,-8.4,28.1,0.9,-34.0,5.73,2.12,-27.4,33.0
2012-05-17 01:00:00,0.0,1.8961,0.0009,402.98,0.19,96.3,32.7,137.99,31.92,24.64,36.38,0.87,14.36,-28.37,-56,573,-916,28.2,8.5,-8.5,28.1,0.9,-33.9,5.73,2.13,-27.4,33.1
2012-05-17 01:01:00,0.0,1.8963,0.0009,402.91,0.19,97.7,30.7,137.99,31.94,24.63,36.38,0.90,14.54,-28.37,-56,573,-916,28.2,8.4,-8.6,28.1,0.9,-34.1,5.73,2.15,-27.4,33.1
2012-05-17 01:02:00,0.0,1.8967,0.0009,402.88,0.19,97.8,28.3,137.99,31.95,24.63,36.38,0.92,14.70,-28.36,-56,573,-916,28.2,8.4,-8.6,28.1,0.9,-34.2,5.73,2.14,-27.4,33.1
2012-05-17 01:03:00,0.0,1.8964,0.0009,403.05,0.22,102.7,26.9,137.99,31.97,24.63,36.37,0.92,14.86,-28.36,-56,573,-916,28.2,8.4,-8.6,28.2,0.8,-35.0,5.73,2.12,-27.4,33.1
2012-05-17 01:04:00,0.0,1.8962,0.0011,403.00,0.18,98.8,35.0,137.99,31.99,24.63,36.38,0.92,15.02,-28.36,-56,573,-916,28.3,8.4,-8.6,28.2,0.8,-35.2,5.73,2.14,-27.4,33.1
2012-05-17 01:05:00,0.0,1.8960,0.0010,402.99,0.18,105.6,29.0,137.99,32.01,24.64,36.38,0.94,15.16,-28.36,-56,573,-916,28.3,8.4,-8.4,28.2,0.8,-35.1,5.73,2.15,-27.4,33.1
2012-05-17 01:06:00,0.0,1.8964,0.0010,402.93,0.19,97.3,30.7,137.99,32.02,24.63,36.38,0.95,15.31,-28.36,-56,573,-916,28.4,8.4,-8.4,28.3,0.8,-35.1,5.73,2.12,-27.4,33.1
2012-05-17 01:07:00,0.0,1.8963,0.0010,403.00,0.20,108.8,30.9,137.99,32.04,24.63,36.37,0.95,15.44,-28.35,-56,574,-916,28.4,8.4,-8.5,28.3,0.8,-35.1,5.73,2.12,-27.4,33.0
2012-05-17 01:08:00,0.0,1.8965,0.0008,403.03,0.20,101.6,27.8,137.99,32.06,24.63,36.37,0.92,15.57,-28.35,-56,574,-916,28.4,8.3,-8.5,28.3,0.8,-35.1,5.73,2.15,-27.4,33.0
2012-05-17 01:09:00,0.0,1.8963,0.0010,402.94,0.18,98.3,32.6,137.99,32.08,24.63,36.38,0.90,15.69,-28.35,-56,574,-916,28.4,8.3,-8.5,28.3,0.8,-35.2,5.73,2.13,-27.5,33.0
2012-05-17 01:10:00,0.0,1.8962,0.0009,403.04,0.20,96.6,29.0,137.99,32.10,24.63,36.37,0.89,15.81,-28.34,-56,574,-916,28.5,8.3,-8.5,28.4,0.8,-35.1,5.73,2.11,-27.4,33.1
2012-05-17 01:11:00,0.0,1.8959,0.0009,403.03,0.19,104.8,31.8,137.99,32.12,24.63,36.37,0.88,15.92,-28.34,-56,574,-916,28.5,8.2,-8.7,28.4,0.8,-35.1,5.73,2.13,-27.4,33.2
2012-05-17 01:12:00,0.0,1.8960,0.0008,403.00,0.19,96.5,30.6,137.99,32.14,24.63,36.38,0.90,16.03,-28.34,-56,574,-916,28.5,8.2,-8.7,28.4,0.8,-35.1,5.73,2.14,-27.5,33.1
2012-05-17 01:13:00,0.0,1.8961,0.0010,402.95,0.20,101.3,32.3,137.99,32.15,24.63,36.38,0.91,16.13,-28.34,-56,574,-916,28.5,8.1,-8.7,28.5,0.8,-35.1,5.73,2.11,-27.5,33.1
2012-05-17 01:14:00,0.0,1.8963,0.0009,403.01,0.20,90.2,32.5,137.99,32.17,24.63,36.37,0.91,16.23,-28.34,-56,574,-916,28.6,8.2,-8.7,28.5,0.8,-35.0,5.73,2.12,-27.4,33.1
2012-05-17 01:15:00,0.0,1.8959,0.0010,402.98,0.18,99.0,33.1,137.99,32.19,24.63,36.37,0.92,16.32,-28.34,-56,574,-917,28.6,8.1,-8.7,28.5,0.8,-35.1,5.73,2.14,-27.5,33.2
2012-05-17 01:16:00,0.0,1.8961,0.0011,403.03,0.21,92.6,27.6,137.99,32.21,24.63,36.37,0.93,16.41,-28.33,-56,575,-917,28.6,8.2,-8.7,28.5,0.8,-35.1,5.73,2.11,-27.5,33.2
2012-05-17 01:17:00,0.0,1.8963,0.0011,403.00,0.22,97.8,32.9,137.99,32.23,24.63,36.37,0.94,16.50,-28.33,-57,575,-917,28.6,8.2,-8.6,28.5,0.8,-35.0,5.73,2.11,-27.5,33.2
2012-05-17 01:18:00,0.0,1.8962,0.0010,402.94,0.21,103.1,28.9,137.99,32.24,24.63,36.38,0.95,16.59,-28.33,-56,575,-917,28.6,8.2,-8.6,28.6,0.8,-35.1,5.73,2.14,-27.5,33.3
2012-05-17 01:19:00,0.0,1.8961,0.0009,402.94,0.19,93.9,32.4,137.99,32.26,24.63,36.38,0.95,16.66,-28.33,-56,575,-916,28.7,8.1,-8.6,28.6,0.8,-34.9,5.73,2.12,-27.5,33.4
2012-05-17 01:20:00,0.0,1.8960,0.0009,402.90,0.19,100.0,31.1,137.99,32.28,24.63,36.38,0.94,16.74,-28.33,-57,575,-917,28.7,8.1,-8.7,28.6,0.8,-35.0,5.73,2.10,-27.5,33.4
2012-05-17 01:21:00,0.0,1.8961,0.0009,402.94,0.17,94.9,32.1,137.99,32.29,24.63,36.38,0.90,16.81,-28.32,-56,575,-917,28.7,8.1,-8.6,28.6,0.8,-35.0,5.73,2.13,-27.5,33.5
2012-05-17 01:22:00,0.0,1.8963,0.0010,403.05,0.15,92.4,29.5,137.99,32.31,24.63,36.37,0.93,16.88,-28.32,-57,575,-917,28.7,8.1,-8.7,28.6,0.8,-35.0,5.73,2.13,-27.5,33.5
2012-05-17 01:23:00,0.0,1.8960,0.0009,403.07,0.17,102.5,27.8,137.99,32.33,24.63,36.37,0.91,16.94,-28.32,-57,575,-917,28.7,8.1,-8.7,28.7,0.8,-35.0,5.73,2.10,-27.5,33.5
2012-05-17 01:24:00,0.0,1.8960,0.0009,403.01,0.17,94.5,23.7,137.99,32.35,24.63,36.37,0.89,17.01,-28.32,-56,575,-917,28.8,8.1,-8.6,28.7,0.8,-35.2,5.73,2.12,-27.5,33.6
2012-05-17 01:25:00,0.0,1.8959,0.0008,403.00,0.18,95.9,32.9,137.99,32.36,24.63,36.37,0.90,17.07,-28.32,-57,575,-917,28.8,8.1,-8.7,28.7,0.8,-35.3,5.73,2.13,-27.5,33.7
2012-05-17 01:26:00,0.0,1.8961,0.0011,403.03,0.19,101.8,31.8,137.99,32.38,24.63,36.37,0.91,17.12,-28.32,-56,576,-917,28.8,8.0,-8.7,28.7,0.8,-35.3,5.73,2.10,-27.5,33.5
2012-05-17 01:27:00,0.0,1.8958,0.0010,402.98,0.19,96.3,25.7,137.99,32.39,24.63,36.37,0.92,17.18,-28.31,-57,575,-917,28.8,8.0,-8.7,28.7,0.8,-35.3,5.73,2.11,-27.5,33.5
2012-05-17 01:28:00,0.0,1.8956,0.0010,402.93,0.16,103.7,27.4,137.99,32.41,24.64,36.38,0.93,17.23,-28.32,-57,575,-917,28.8,8.0,-8.6,28.7,0.8,-35.3,5.73,2.13,-27.5,33.5
2012-05-17 01:29:00,0.0,1.8958,0.0009,402.99,0.17,101.4,27.7,137.99,32.42,24.63,36.37,0.93,17.28,-28.32,-57,575,-917,28.9,8.0,-8.6,28.8,0.8,-35.3,5.73,2.10,-27.5,33.6
2012-05-17 01:30:00,0.0,1.8960,0.0009,402.99,0.23,103.4,26.8,137.99,32.44,24.63,36.37,0.95,17.33,-28.31,-57,576,-917,28.9,8.0,-8.6,28.8,0.8,-35.3,5.73,2.09,-27.5,33.7
2012-05-17 01:31:00,0.0,1.8959,0.0008,402.89,0.16,104.2,24.6,137.99,32.46,24.64,36.37,0.95,17.38,-28.31,-57,576,-917,28.9,8.0,-8.6,28.8,0.8,-35.2,5.73,2.13,-27.5,33.7
"startDT [UTC]","vpos","CH4 [ppm]","stdev(CH4) [ppm]","CO2 [ppm]","stdev(CO2) [ppm]","H2O [ppm]","stdev(H2O)","p_LGR [torr]","T_LGR [C]","mt1_LGR [us]","mt2_LGR [us]","T_ECpre [C]","T_EC1 [C]","T_EC2 [C]","p_inlet [hPa]","p_in [hPa]","p_out [hPa]","T_inlet [C]","RH_inlet [%]","dwpt_inlet [C]","T_vent [C]","RH_vent [%]","dwpt_vent [C]","flow_vent [l min-1]","flow_inlet [l min-1]","dwpt_sample [C]","T_room [C]"
2012-05-17 01:33:00,0.0,1.8958,0.0008,402.87,0.20,108.0,32.3,137.99,32.49,24.63,36.37,0.94,17.47,-28.31,-57,576,-917,29.0,8.1,-8.5,28.9,0.8,-35.1,5.73,2.10,-27.5,33.7
2012-05-17 01:34:00,1.0,1.8989,0.0025,388.25,10.05,106.6,31.4,137.99,32.51,24.64,36.38,0.91,17.51,-28.31,-57,575,-917,29.0,8.0,-8.6,28.9,0.8,-35.2,5.73,2.12,-27.5,33.6
2012-05-17 01:35:00,1.0,1.9012,0.0011,376.89,0.17,109.0,29.5,137.99,32.52,24.64,36.38,0.88,17.55,-28.31,-57,579,-917,29.0,8.0,-8.5,28.9,0.8,-35.2,5.73,2.11,-27.5,33.6
2012-05-17 01:36:00,1.0,1.9016,0.0009,376.95,0.21,103.9,35.1,137.99,32.54,24.63,36.38,0.90,17.59,-28.30,-57,575,-917,29.0,8.1,-8.5,28.9,0.8,-35.1,5.73,2.09,-27.5,33.6
2012-05-17 01:37:00,1.0,1.9017,0.0009,376.88,0.18,106.1,30.7,137.99,32.55,24.63,36.38,0.90,17.62,-28.31,-57,575,-917,29.0,7.9,-8.7,29.0,0.8,-35.2,5.73,2.13,-27.5,33.5
2012-05-17 01:38:00,1.0,1.9013,0.0008,376.84,0.21,99.7,33.3,137.99,32.57,24.64,36.38,0.89,17.66,-28.31,-57,575,-917,29.1,7.9,-8.7,29.0,0.8,-35.1,5.73,2.11,-27.5,33.5
2012-05-17 01:39:00,1.0,1.9019,0.0010,376.78,0.19,115.7,33.2,137.99,32.58,24.63,36.39,0.91,17.69,-28.30,-57,575,-917,29.1,7.9,-8.6,29.0,0.8,-35.2,5.73,2.10,-27.5,33.4
2012-05-17 01:40:00,1.0,1.9017,0.0010,376.86,0.25,119.4,34.3,137.99,32.60,24.63,36.38,0.92,17.73,-28.30,-57,575,-917,29.1,8.0,-8.6,29.0,0.8,-35.1,5.73,2.12,-27.5,33.5
2012-05-17 01:41:00,4.0,1.8573,0.0293,382.98,3.97,101.5,33.8,137.98,32.61,24.63,36.38,0.94,17.76,-28.29,-57,579,-917,29.1,8.1,-8.4,29.0,0.8,-35.2,5.73,2.12,-27.5,33.6
2012-05-17 01:42:00,4.0,1.8257,0.0010,387.34,0.19,103.6,34.1,137.98,32.63,24.64,36.38,0.93,17.78,-28.30,-57,577,-917,29.1,8.1,-8.3,29.1,0.7,-35.5,5.73,2.09,-27.6,33.6
2012-05-17 01:43:00,4.0,1.8251,0.0010,387.39,0.21,110.5,31.7,137.99,32.64,24.64,36.38,0.94,17.81,-28.29,-57,576,-918,29.2,8.2,-8.2,29.1,0.7,-35.4,5.73,2.12,-27.7,33.6
2012-05-17 01:44:00,4.0,1.8252,0.0009,387.35,0.20,100.5,31.3,137.98,32.66,24.63,36.38,0.95,17.84,-28.29,-57,575,-918,29.2,8.0,-8.5,29.1,0.7,-35.5,5.73,2.10,-27.7,33.6
2012-05-17 01:45:00,4.0,1.8252,0.0010,387.49,0.19,105.3,34.6,137.98,32.67,24.64,36.37,0.95,17.86,-28.29,-57,574,-918,29.2,7.8,-8.7,29.1,0.7,-35.5,5.73,2.09,-27.8,33.4
2012-05-17 01:46:00,4.0,1.8252,0.0008,387.36,0.17,101.3,33.0,137.98,32.69,24.64,36.38,0.93,17.89,-28.29,-57,574,-918,29.2,7.8,-8.7,29.1,0.7,-35.5,5.73,2.12,-27.8,33.6
2012-05-17 01:47:00,4.0,1.8251,0.0010,387.38,0.19,110.7,29.8,137.98,32.70,24.64,36.38,0.89,17.92,-28.28,-57,573,-918,29.3,7.8,-8.7,29.2,0.7,-35.5,5.73,2.10,-27.9,33.6
2012-05-17 01:48:00,5.0,1.7236,0.0639,364.06,14.59,83.9,27.5,137.98,32.72,24.63,36.39,0.87,17.94,-28.29,-57,689,-918,29.3,7.8,-8.8,29.2,0.7,-35.4,5.73,2.09,-27.9,33.4
2012-05-17 01:49:00,5.0,1.6563,0.0010,348.73,0.20,69.1,26.3,137.98,32.73,24.64,36.39,0.91,17.95,-28.29,-57,690,-918,29.3,7.7,-8.8,29.2,0.7,-35.5,5.73,2.12,-28.0,33.4
2012-05-17 01:50:00,5.0,1.6561,0.0008,348.69,0.17,77.9,33.8,137.98,32.75,24.64,36.40,0.89,17.98,-28.29,-57,675,-918,29.3,7.7,-8.8,29.2,0.7,-35.4,5.73,2.09,-28.1,33.7
2012-05-17 01:51:00,5.0,1.6560,0.0009,348.66,0.16,75.2,32.6,137.98,32.76,24.63,36.40,0.91,18.00,-28.28,-57,640,-918,29.3,7.8,-8.7,29.3,0.7,-35.4,5.73,2.10,-28.1,33.7
2012-05-17 01:52:00,5.0,1.6563,0.0010,348.69,0.18,84.0,34.1,137.98,32.77,24.64,36.39,0.92,18.02,-28.28,-57,591,-918,29.4,7.8,-8.6,29.3,0.7,-35.3,5.73,2.13,-28.2,33.8
2012-05-17 01:53:00,5.0,1.6558,0.0009,348.64,0.19,87.7,26.8,137.98,32.79,24.64,36.40,0.92,18.04,-28.29,-57,582,-918,29.4,7.8,-8.7,29.3,0.7,-35.4,5.73,2.09,-28.2,33.6
2012-05-17 01:54:00,5.0,1.6555,0.0010,348.67,0.20,90.2,36.1,137.98,32.80,24.64,36.39,0.93,18.06,-28.29,-57,583,-918,29.4,7.7,-8.9,29.3,0.7,-35.5,5.73,2.10,-28.3,33.6
2012-05-17 01:55:00,2.0,1.7725,0.0744,375.31,16.88,89.2,27.9,137.98,32.82,24.63,36.38,0.94,18.08,-28.28,-57,525,-918,29.4,7.7,-8.8,29.3,0.7,-35.4,5.73,2.12,-28.5,33.6
2012-05-17 01:56:00,2.0,1.8508,0.0008,393.02,0.19,86.7,29.8,137.98,32.83,24.64,36.37,0.95,18.09,-28.29,-57,537,-918,29.4,7.7,-8.7,29.3,0.7,-35.4,5.73,2.08,-28.5,33.8
2012-05-17 01:57:00,2.0,1.8508,0.0009,393.09,0.21,85.0,33.1,137.98,32.85,24.64,36.37,0.95,18.11,-28.28,-57,558,-918,29.4,7.7,-8.7,29.4,0.7,-35.3,5.73,2.10,-28.6,33.8
2012-05-17 01:58:00,2.0,1.8514,0.0009,393.17,0.17,75.2,24.5,137.98,32.86,24.63,36.37,0.95,18.13,-28.28,-57,591,-918,29.4,7.7,-8.7,29.4,0.7,-35.2,5.73,2.10,-28.7,33.6
2012-05-17 01:59:00,2.0,1.8511,0.0009,393.19,0.17,67.2,31.4,137.98,32.88,24.63,36.37,0.95,18.14,-28.28,-57,585,-918,29.5,7.8,-8.6,29.4,0.7,-35.3,5.73,2.08,-28.8,33.7
2012-05-17 02:00:00,2.0,1.8513,0.0011,393.06,0.21,76.0,36.1,137.98,32.89,24.63,36.38,0.94,18.15,-28.28,-57,585,-918,29.5,7.7,-8.8,29.4,0.7,-35.3,5.73,2.11,-28.9,33.9
2012-05-17 02:01:00,2.0,1.8513,0.0010,393.06,0.15,70.4,32.7,137.98,32.91,24.63,36.38,0.92,18.17,-28.28,-57,584,-918,29.6,7.6,-8.8,29.5,0.7,-35.3,5.73,2.10,-28.9,33.8
2012-05-17 02:02:00,0.0,1.8763,0.0170,398.60,3.73,60.1,29.3,137.98,32.92,24.63,36.37,0.91,18.15,-28.28,-57,569,-918,29.6,7.6,-8.8,29.5,0.7,-35.6,5.73,2.09,-29.0,33.9
2012-05-17 02:03:00,0.0,1.8956,0.0010,402.82,0.18,64.2,28.8,137.98,32.94,24.63,36.37,1.08,17.14,-28.29,-57,569,-918,29.6,7.6,-8.9,29.5,0.7,-35.4,5.73,2.13,-29.0,33.8
2012-05-17 02:04:00,0.0,1.8953,0.0010,402.86,0.17,74.2,35.1,137.98,32.95,24.63,36.36,1.00,14.98,-28.29,-57,570,-918,29.6,7.6,-8.8,29.5,0.7,-35.3,5.73,2.10,-29.1,34.0
2012-05-17 02:05:00,0.0,1.8955,0.0010,402.84,0.17,60.4,31.4,137.98,32.96,24.63,36.37,1.02,12.63,-28.29,-57,570,-918,29.6,7.6,-8.8,29.5,0.7,-35.3,5.73,2.10,-29.2,34.1
"startDT [UTC]","vpos","CH4 [ppm]","stdev(CH4) [ppm]","CO2 [ppm]","stdev(CO2) [ppm]","H2O [ppm]","stdev(H2O)","p_LGR [torr]","T_LGR [C]","mt1_LGR [us]","mt2_LGR [us]","T_ECpre [C]","T_EC1 [C]","T_EC2 [C]","p_inlet [hPa]","p_in [hPa]","p_out [hPa]","T_inlet [C]","RH_inlet [%]","dwpt_inlet [C]","T_vent [C]","RH_vent [%]","dwpt_vent [C]","flow_vent [l min-1]","flow_inlet [l min-1]","dwpt_sample [C]","T_room [C]"
2012-05-17 02:07:00,0.0,1.8952,0.0010,402.77,0.18,54.7,33.0,137.98,32.99,24.63,36.37,0.98,8.00,-28.26,-57,571,-918,29.7,7.5,-8.9,29.6,0.7,-35.1,5.73,2.09,-29.2,34.4
2012-05-17 02:08:00,0.0,1.8958,0.0011,402.83,0.24,64.0,32.7,137.98,33.00,24.63,36.36,0.99,5.81,-28.25,-57,571,-919,29.7,7.5,-8.9,29.6,0.7,-35.5,5.73,2.13,-29.3,34.4
2012-05-17 02:09:00,0.0,1.8954,0.0010,402.74,0.24,52.0,26.2,137.98,33.01,24.63,36.37,1.07,3.71,-28.23,-58,571,-919,29.7,7.6,-8.8,29.6,0.7,-35.1,5.73,2.10,-29.3,34.4
2012-05-17 02:10:00,0.0,1.8957,0.0010,402.68,0.21,56.6,30.9,137.98,33.02,24.63,36.37,1.05,1.72,-28.21,-58,571,-919,29.7,7.6,-8.8,29.6,0.7,-35.2,5.73,2.12,-29.3,34.5
2012-05-17 02:11:00,0.0,1.8954,0.0011,402.69,0.16,53.2,27.1,137.98,33.03,24.63,36.37,0.96,-0.16,-28.20,-58,571,-919,29.7,7.6,-8.8,29.6,0.7,-35.4,5.73,2.12,-29.4,34.5
2012-05-17 02:12:00,0.0,1.8956,0.0010,402.71,0.21,49.9,29.0,137.98,33.03,24.63,36.36,1.01,-1.94,-28.18,-58,571,-919,29.7,7.6,-8.8,29.6,0.7,-35.6,5.73,2.11,-29.5,34.5
2012-05-17 02:13:00,0.0,1.8955,0.0010,402.73,0.19,46.0,32.6,137.99,33.04,24.63,36.37,1.07,-3.62,-28.17,-58,572,-919,29.6,7.6,-8.8,29.6,0.7,-35.6,5.73,2.15,-29.6,34.4
2012-05-17 02:14:00,0.0,1.8958,0.0010,402.71,0.20,39.4,30.8,137.99,33.04,24.63,36.36,1.04,-5.21,-28.15,-58,572,-919,29.6,7.6,-8.8,29.5,0.8,-35.0,5.73,2.14,-29.6,34.4
2012-05-17 02:15:00,0.0,1.8955,0.0009,402.76,0.22,46.9,28.0,137.99,33.05,24.63,36.36,0.97,-6.71,-28.15,-58,572,-919,29.6,7.6,-8.8,29.5,0.8,-35.0,5.73,2.12,-29.7,34.4
2012-05-17 02:16:00,0.0,1.8953,0.0010,402.62,0.18,40.3,28.2,137.99,33.05,24.63,36.36,0.99,-8.11,-28.14,-58,571,-919,29.5,7.7,-8.8,29.5,0.7,-35.4,5.73,2.16,-29.7,34.3
2012-05-17 02:17:00,0.0,1.8959,0.0010,402.53,0.18,39.8,26.9,137.99,33.05,24.63,36.37,1.06,-9.44,-28.13,-58,572,-919,29.5,7.7,-8.7,29.4,0.7,-35.3,5.73,2.16,-29.7,34.3
2012-05-17 02:18:00,0.0,1.8957,0.0011,402.51,0.21,39.3,29.8,137.99,33.05,24.63,36.36,1.06,-10.63,-28.12,-58,572,-919,29.4,7.7,-8.7,29.4,0.8,-34.9,5.73,2.14,-29.7,34.3